Regional Weather Roundup
Issued by NWS Cleveland, OH

Home | Current Version | Previous Version | Graphics & Text | Print | Product List | Glossary On
Versions: 1 2 3 4 5 6 7 8 9 10 11 12 13 14 15 16 17 18 19 20 21 22 23 24 25 26 27 28 29 30 31 32 33 34 35 36 37 38 39 40 41 42 43 44 45 46 47 48 49 50
005
ASUS41 KCLE 251512
RWRCLE
OHIO REGIONAL WEATHER ROUNDUP
NATIONAL WEATHER SERVICE WILMINGTON, OH
1100 AM EDT TUE JUL 25 2017

NOTE: "FAIR" INDICATES FEW OR NO CLOUDS BELOW 12,000 FEET WITH NO
SIGNIFICANT WEATHER AND/OR OBSTRUCTIONS TO VISIBILITY.

OHZ001>008-015>018-024>027-034-035-043-044-251600-
   NORTHWEST OHIO

CITY           SKY/WX    TMP DP  RH WIND       PRES   REMARKS
DEFIANCE       FAIR     N/A N/A N/A E8        30.25R
FINDLAY        FAIR      71  55  56 E12       30.22S
TOLEDO EXPRESS FAIR      72  53  51 E10       30.23R
TOLEDO EXEC    FAIR      72  58  61 E6        30.24R
LIMA           FAIR      69  58  67 NE9       30.22F
$$

OHZ009>014-019>023-028>033-038-089-251600-
   NORTHEAST OHIO

CITY           SKY/WX    TMP DP  RH WIND       PRES   REMARKS
CLE-HOPKINS    CLOUDY    71  60  68 N9        30.23R
CLE-LAKEFRONT  CLOUDY    69  57  65 N7        30.20R
CUY CO. ARPT   CLOUDY    68  59  73 NE9       30.22R
LORAIN-ELYRIA  CLOUDY    65  53  65 NE7       30.23R
ASHTABULA      CLOUDY    65  59  81 VRB6      30.21R
AKRON-CANTON   CLOUDY    69  56  62 N6        30.21S
WOOSTER        CLOUDY    68  59  73 N6        30.22S
MANSFIELD      CLOUDY    67  58  72 VRB5      30.23S
YOUNGSTOWN     LGT RAIN  66  58  75 NW6       30.20R
$$

OHZ042-051>053-060>062-070>072-077>081-251600-
  SOUTHWEST OHIO

CITY           SKY/WX    TMP DP  RH WIND       PRES   REMARKS
CINC-COVINGTON FAIR      73  59  61 E6        30.20R
CINC-LUNKEN    FAIR      73  61  65 NE9       30.20S
HAMILTON       FAIR      74  60  61 E6        30.22R
DAYTON         FAIR      70  57  63 NE6       30.23S
WRIGHT-PAT AFB FAIR      70  57  64 NE6       30.22S
DAYTON GENERAL FAIR      71  58  63 E8        30.21S
WILMINGTON     FAIR      70  60  70 NE7       30.21S
$$

OHZ036-037-039>041-045>050-054>059-063>069-073>076-082>088-251600-
  CENTRAL AND SOUTHEAST OHIO

CITY           SKY/WX    TMP DP  RH WIND       PRES   REMARKS
COLUMBUS       CLOUDY    69  59  70 E6        30.22R
OSU AIRPORT    CLOUDY    68  59  73 NE7       30.23R
BOLTON FIELD   PTSUNNY   70  57  64 NE5       30.23R
RICKENBACK AFB CLOUDY    67  57  70 E8        30.22S
NEWARK         CLOUDY    68  58  70 MISG      30.21F
MARION         CLOUDY    68  56  65 NE6       30.23S
LANCASTER      CLOUDY    67  57  70 VRB3      30.23S
ZANESVILLE     CLOUDY    68  58  70 N6        30.21S
NEW PHILLY     CLOUDY    68  59  73 NW6       30.21S
$$




USA.gov is the U.S. government's official web portal to all federal, state and local government web resources and services.